Flag for Japan Weather past 2 weeks in Kawasaki, Japan

Now
70 °F

Partly sunny.


Feels Like: 70 °F
Forecast: 60 / 71 °F
Wind: 20 mph from Southwest

Location: Tokyo International Airport

Current Time: Oct 21, 2014 at 2:50:18 PM

Latest Report: Oct 21, 2014 at 2:30 PM


Visibility: N/A

Pressure: 29.95 "Hg

Humidity: 78%

Dew point: 63 °F

Location of KawasakiLocation

Historic Weather in Kawasaki — Graph

°F

Kawasaki temperature yesterday

Maximum temperature yesterday: 73 °F (at 2:00 PM)
Minimum temperature yesterday: 61 °F (at 5:00 AM)
Average temperature yesterday: 67 °F

Past Weeks' High & Low Weather Summary

 TemperatureHumidityPressure
High81 °F (Oct 14, 10:00 AM)100% (Oct 13, 5:50 PM)30.36 "Hg (Oct 13, 5:50 PM)
Low57 °F (Oct 15, 5:00 PM)31% (Oct 17, 12:30 PM)29.06 "Hg (Oct 14, 3:00 AM)
Average66 °F69%30.04 "Hg
* Reported Oct 6 1:00 PM — Oct 21 1:30 PM, Kawasaki, Weather by CustomWeather, © 2014

Note: Actual official high and low records may vary slightly from our data, if they occured in-between our weather recording intervals... More about our weather records

Advertising

Kawasaki weather history for previous 24 hours

 ConditionsComfort  
Time TempWeatherWind HumidityBarometerVisibility
1:30 PM
Oct 21
68 °FBroken clouds.18 mph83%29.98 "HgN/A
1:00 PM68 °FBroken clouds.21 mph83%29.98 "HgN/A
12:30 PM66 °FBroken clouds.21 mph83%30.01 "HgN/A
12:00 PM68 °FLight rain. Broken clouds.21 mph88%30.01 "HgN/A
11:30 AM68 °FLight rain. Broken clouds.21 mph88%30.04 "Hg5 mi
11:00 AM68 °FLight rain. Broken clouds.21 mph88%30.04 "Hg4 mi
10:30 AM68 °FLight rain. Fog.13 mph88%30.07 "Hg3 mi
10:00 AM66 °FLight rain. Fog.10 mph94%30.07 "Hg3 mi
9:30 AM64 °FLight rain. Fog.2 mph94%30.09 "Hg2 mi
9:00 AM64 °FLight rain. Fog.2 mph88%30.09 "Hg3 mi
8:30 AM64 °FLight rain. Fog.2 mph88%30.09 "Hg4 mi
8:00 AM64 °FLight rain. Fog.3 mph88%30.09 "Hg4 mi
7:30 AM63 °FLight rain. Partly sunny.3 mph88%30.09 "Hg4 mi
7:00 AM63 °FLight rain. Broken clouds.3 mph88%30.09 "Hg5 mi
6:30 AM63 °FLight rain. Broken clouds.3 mph88%30.09 "Hg6 mi
6:00 AM63 °FScattered showers. Partly sunny.No wind88%30.09 "HgN/A
5:30 AM63 °FLight rain. Partly cloudy.2 mph88%30.09 "HgN/A
5:00 AM63 °FScattered showers. Partly cloudy.5 mph88%30.09 "HgN/A
4:30 AM63 °FLight rain. Partly cloudy.3 mph83%30.09 "HgN/A
4:00 AM63 °FLight rain. Partly cloudy.6 mph83%30.09 "HgN/A
3:30 AM63 °FLight rain. Partly cloudy.5 mph83%30.09 "HgN/A
3:00 AM63 °FLight rain. Passing clouds.5 mph88%30.09 "HgN/A
2:30 AM63 °FPassing clouds.5 mph83%30.12 "HgN/A
2:00 AM63 °FPassing clouds.5 mph83%30.12 "HgN/A
1:30 AM64 °FPartly cloudy.3 mph83%30.12 "HgN/A
1:00 AM64 °FPartly cloudy.6 mph83%30.15 "HgN/A
12:30 AM64 °FLight rain. Passing clouds.7 mph83%30.15 "HgN/A
12:00 AM64 °FPassing clouds.5 mph83%30.15 "HgN/A
11:30 PM
Oct 20
64 °FPartly cloudy.6 mph83%30.15 "HgN/A
11:00 PM64 °FPartly cloudy.6 mph83%30.15 "HgN/A
10:30 PM64 °FLight rain. Partly cloudy.5 mph83%30.15 "HgN/A
10:00 PM64 °FScattered showers. Passing clouds.6 mph83%30.18 "HgN/A
9:30 PM66 °FLight rain. Passing clouds.5 mph78%30.18 "HgN/A
9:00 PM66 °FLight rain. Passing clouds.6 mph78%30.18 "HgN/A
8:30 PM66 °FLight rain. Passing clouds.10 mph78%30.18 "HgN/A
8:00 PM68 °FLight rain. Passing clouds.9 mph73%30.18 "HgN/A
7:30 PM72 °FLight rain. Passing clouds.8 mph61%30.18 "HgN/A
7:00 PM70 °FScattered showers. Passing clouds.9 mph69%30.18 "HgN/A
6:30 PM70 °FPassing clouds.9 mph69%30.18 "HgN/A
6:00 PM72 °FPassing clouds.12 mph61%30.15 "HgN/A
5:30 PM72 °FPassing clouds.10 mph61%30.15 "HgN/A
5:00 PM72 °FLight rain. Partly cloudy.12 mph57%30.15 "HgN/A
4:30 PM72 °FBroken clouds.13 mph61%30.15 "HgN/A
4:00 PM72 °FLight rain. Broken clouds.13 mph61%30.15 "HgN/A
3:30 PM72 °FLight rain. Partly sunny.14 mph61%30.15 "HgN/A
3:00 PM73 °FPartly sunny.15 mph53%30.15 "HgN/A
2:30 PM73 °FPartly sunny.17 mph53%30.15 "HgN/A
2:00 PM73 °FBroken clouds.16 mph53%30.15 "HgN/A
Weather by CustomWeather, © 2014

See weather overviewHow to use our weather pages